| time (UTC) | temp C | wind direction | speed KPH | gust KPH | rain 1hr cm | rain 24hr cm | rain mn cm | humidity % | barometer mb |
| 20260509035036 | 13 | 132 | 8.0 | 14.5 | 0.00 | 0.28 | 0.00 | 81 | 1010.1 |
| 20260509034016 | 13 | 121 | 6.4 | 14.5 | 0.00 | 0.28 | 0.00 | 81 | 1010.7 |
| 20260509033016 | 13 | 111 | 3.2 | 11.3 | 0.00 | 0.28 | 0.00 | 81 | 1010.7 |
| 20260509032037 | 13 | 82 | 4.8 | 16.1 | 0.00 | 0.28 | 0.00 | 80 | 1010.7 |
| 20260509031016 | 13 | 112 | 3.2 | 11.3 | 0.00 | 0.28 | 0.00 | 81 | 1010.6 |
| 20260509030017 | 13 | 226 | 4.8 | 12.9 | 0.00 | 0.28 | 0.00 | 81 | 1010.6 |
| 20260509025017 | 13 | 102 | 4.8 | 12.9 | 0.00 | 0.28 | 0.00 | 80 | 1010.4 |
| 20260509024017 | 13 | 110 | 6.4 | 16.1 | 0.00 | 0.28 | 0.00 | 80 | 1010.2 |
| 20260509023017 | 13 | 105 | 6.4 | 14.5 | 0.00 | 0.28 | 0.00 | 80 | 1010.1 |
| 20260509022037 | 13 | 221 | 3.2 | 9.7 | 0.00 | 0.28 | 0.00 | 81 | 1010.3 |
| 20260509021056 | 13 | 105 | 1.6 | 4.8 | 0.00 | 0.28 | 0.00 | 81 | 1010.3 |
| 20260509020016 | 13 | 107 | 3.2 | 14.5 | 0.00 | 0.28 | 0.00 | 80 | 1010.3 |
| 20260509015017 | 13 | 119 | 3.2 | 11.3 | 0.00 | 0.28 | 0.00 | 81 | 1010.4 |
| 20260509014016 | 13 | 48 | 3.2 | 12.9 | 0.00 | 0.28 | 0.00 | 81 | 1010.3 |
| 20260509013016 | 13 | 79 | 3.2 | 9.7 | 0.00 | 0.28 | 0.00 | 81 | 1010.3 |
| 20260509012016 | 13 | 335 | 1.6 | 14.5 | 0.00 | 0.28 | 0.00 | 80 | 1010.4 |
| 20260509011037 | 13 | 118 | 4.8 | 14.5 | 0.00 | 0.28 | 0.00 | 80 | 1010.4 |
| 20260509010017 | 13 | 116 | 4.8 | 17.7 | 0.00 | 0.28 | 0.00 | 80 | 1010.6 |
| 20260509005016 | 13 | 130 | 8.0 | 12.9 | 0.00 | 0.28 | 0.00 | 81 | 1010.6 |
| 20260509004016 | 13 | 125 | 4.8 | 12.9 | 0.00 | 0.28 | 0.00 | 80 | 1010.8 |
| 20260509003017 | 13 | 127 | 6.4 | 17.7 | 0.00 | 0.28 | 0.00 | 80 | 1010.8 |
| 20260509002016 | 13 | 122 | 8.0 | 16.1 | 0.00 | 0.28 | 0.00 | 79 | 1010.9 |
| 20260509001016 | 13 | 126 | 3.2 | 12.9 | 0.00 | 0.28 | 0.00 | 78 | 1011.0 |
| 20260509000017 | 13 | 134 | 4.8 | 17.7 | 0.00 | 0.28 | 0.28 | 79 | 1011.1 |
| 20260508235016 | 13 | 135 | 3.2 | 11.3 | 0.00 | 0.28 | 0.28 | 82 | 1011.1 |
| 20260508234016 | 12 | 52 | 1.6 | 12.9 | 0.00 | 0.28 | 0.28 | 84 | 1011.0 |
| 20260508233016 | 12 | 59 | 6.4 | 12.9 | 0.00 | 0.28 | 0.28 | 84 | 1011.0 |
| 20260508232016 | 13 | 66 | 6.4 | 14.5 | 0.00 | 0.28 | 0.28 | 84 | 1011.0 |
| 20260508231016 | 13 | 79 | 3.2 | 11.3 | 0.00 | 0.28 | 0.28 | 84 | 1010.8 |
| 20260508230017 | 13 | 77 | 4.8 | 11.3 | 0.00 | 0.28 | 0.28 | 84 | 1010.8 |
| 20260508225016 | 13 | 69 | 4.8 | 14.5 | 0.00 | 0.28 | 0.28 | 83 | 1011.0 |
| 20260508224036 | 13 | 68 | 6.4 | 16.1 | 0.00 | 0.28 | 0.28 | 83 | 1011.3 |
| 20260508223016 | 13 | 66 | 8.0 | 16.1 | 0.00 | 0.28 | 0.28 | 82 | 1011.4 |
| 20260508222016 | 13 | 49 | 8.0 | 16.1 | 0.00 | 0.28 | 0.28 | 82 | 1011.3 |
| 20260508221016 | 13 | 47 | 8.0 | 14.5 | 0.00 | 0.28 | 0.28 | 80 | 1011.3 |
| 20260508220016 | 14 | 50 | 8.0 | 12.9 | 0.00 | 0.28 | 0.28 | 79 | 1011.3 |
| 20260508215016 | 14 | 46 | 6.4 | 11.3 | 0.00 | 0.28 | 0.28 | 79 | 1011.2 |
| 20260508214016 | 14 | 49 | 6.4 | 12.9 | 0.00 | 0.28 | 0.28 | 79 | 1011.2 |
| 20260508213016 | 14 | 50 | 6.4 | 14.5 | 0.00 | 0.28 | 0.28 | 78 | 1011.2 |
| 20260508212016 | 14 | 50 | 4.8 | 11.3 | 0.00 | 0.28 | 0.28 | 76 | 1011.4 |
| 20260508211036 | 14 | 67 | 3.2 | 6.4 | 0.00 | 0.28 | 0.28 | 75 | 1011.2 |
| 20260508210016 | 14 | 53 | 3.2 | 4.8 | 0.00 | 0.28 | 0.28 | 74 | 1011.1 |
| 20260508205016 | 14 | 51 | 4.8 | 8.0 | 0.00 | 0.28 | 0.28 | 73 | 1011.0 |
| 20260508204056 | 15 | 50 | 3.2 | 6.4 | 0.00 | 0.28 | 0.28 | 72 | 1010.8 |
| 20260508203016 | 15 | 49 | 3.2 | 6.4 | 0.00 | 0.28 | 0.28 | 71 | 1010.7 |
| 20260508202016 | 15 | 49 | 4.8 | 9.7 | 0.00 | 0.28 | 0.28 | 71 | 1010.6 |
| 20260508201016 | 15 | 52 | 6.4 | 9.7 | 0.00 | 0.28 | 0.28 | 71 | 1010.5 |
| 20260508200017 | 15 | 47 | 6.4 | 8.0 | 0.00 | 0.28 | 0.28 | 71 | 1010.5 |
| 20260508195056 | 15 | 45 | 4.8 | 8.0 | 0.00 | 0.28 | 0.28 | 71 | 1010.4 |
| 20260508194016 | 15 | 44 | 4.8 | 8.0 | 0.00 | 0.28 | 0.28 | 70 | 1010.2 |
| 20260508193016 | 15 | 44 | 3.2 | 6.4 | 0.00 | 0.28 | 0.28 | 69 | 1010.1 |
| 20260508192016 | 16 | 59 | 1.6 | 6.4 | 0.00 | 0.28 | 0.28 | 68 | 1010.1 |
| 20260508191016 | 16 | 49 | 4.8 | 8.0 | 0.00 | 0.28 | 0.28 | 66 | 1010.0 |
| 20260508190016 | 16 | 37 | 4.8 | 8.0 | 0.00 | 0.28 | 0.28 | 64 | 1010.1 |
| 20260508185016 | 17 | 58 | 3.2 | 6.4 | 0.00 | 0.28 | 0.28 | 63 | 1010.0 |
| 20260508184036 | 17 | 52 | 4.8 | 9.7 | 0.00 | 0.28 | 0.28 | 62 | 1009.9 |
| 20260508183016 | 17 | 66 | 3.2 | 9.7 | 0.00 | 0.28 | 0.28 | 62 | 1010.0 |
| 20260508182017 | 17 | 42 | 6.4 | 9.7 | 0.00 | 0.28 | 0.28 | 60 | 1009.9 |
| 20260508181016 | 17 | 47 | 4.8 | 9.7 | 0.00 | 0.28 | 0.28 | 59 | 1009.9 |
| 20260508180016 | 18 | 48 | 6.4 | 11.3 | 0.00 | 0.28 | 0.28 | 59 | 1009.9 |
| 20260508175017 | 18 | 47 | 4.8 | 11.3 | 0.00 | 0.28 | 0.28 | 57 | 1009.9 |
| 20260508174016 | 18 | 21 | 3.2 | 6.4 | 0.00 | 0.28 | 0.28 | 57 | 1010.0 |
| 20260508173016 | 18 | 46 | 4.8 | 9.7 | 0.00 | 0.28 | 0.28 | 57 | 1010.0 |
| 20260508172016 | 18 | 45 | 0.0 | 4.8 | 0.00 | 0.28 | 0.28 | 57 | 1010.0 |
| 20260508171017 | 18 | 46 | 0.0 | 6.4 | 0.00 | 0.28 | 0.28 | 56 | 1010.0 |
| 20260508170016 | 18 | 46 | 3.2 | 6.4 | 0.00 | 0.28 | 0.28 | 56 | 1010.1 |
| 20260508165017 | 19 | 106 | 1.6 | 8.0 | 0.00 | 0.28 | 0.28 | 53 | 1010.2 |
| 20260508164016 | 19 | 118 | 3.2 | 8.0 | 0.00 | 0.28 | 0.28 | 53 | 1010.3 |
| 20260508163016 | 18 | 119 | 1.6 | 6.4 | 0.00 | 0.28 | 0.28 | 55 | 1010.3 |
| 20260508162016 | 18 | 105 | 1.6 | 8.0 | 0.00 | 0.28 | 0.28 | 54 | 1010.3 |
| 20260508161017 | 18 | 263 | 1.6 | 11.3 | 0.00 | 0.28 | 0.28 | 56 | 1010.3 |
| 20260508160016 | 18 | 302 | 4.8 | 12.9 | 0.00 | 0.30 | 0.28 | 58 | 1010.2 |
| 20260508155016 | 18 | 297 | 6.4 | 11.3 | 0.00 | 0.33 | 0.28 | 58 | 1010.2 |
| 20260508154016 | 17 | 273 | 6.4 | 12.9 | 0.00 | 0.33 | 0.28 | 57 | 1010.2 |
| 20260508153036 | 18 | 272 | 6.4 | 14.5 | 0.00 | 0.36 | 0.28 | 56 | 1010.3 |
| 20260508152017 | 18 | 256 | 6.4 | 12.9 | 0.00 | 0.41 | 0.28 | 55 | 1010.4 |
| 20260508151016 | 18 | 253 | 8.0 | 16.1 | 0.00 | 0.41 | 0.28 | 57 | 1010.5 |
| 20260508150016 | 17 | 257 | 4.8 | 20.9 | 0.00 | 0.41 | 0.28 | 62 | 1010.7 |
| 20260508145016 | 17 | 260 | 4.8 | 9.7 | 0.00 | 0.41 | 0.28 | 69 | 1010.7 |
| 20260508144016 | 16 | 264 | 6.4 | 12.9 | 0.00 | 0.41 | 0.28 | 73 | 1010.8 |
| 20260508143016 | 16 | 245 | 6.4 | 16.1 | 0.00 | 0.41 | 0.28 | 80 | 1010.8 |
| 20260508142037 | 15 | 267 | 6.4 | 11.3 | 0.00 | 0.41 | 0.28 | 91 | 1010.7 |
| 20260508141016 | 14 | 237 | 4.8 | 14.5 | 0.00 | 0.41 | 0.28 | 91 | 1010.7 |
| 20260508140017 | 14 | 259 | 3.2 | 11.3 | 0.00 | 0.41 | 0.28 | 93 | 1010.9 |
| 20260508135017 | 14 | 267 | 3.2 | 8.0 | 0.00 | 0.41 | 0.28 | 91 | 1010.9 |
| 20260508134036 | 14 | 141 | 3.2 | 9.7 | 0.00 | 0.41 | 0.28 | 92 | 1011.0 |
| 20260508133017 | 14 | 97 | 1.6 | 8.0 | 0.00 | 0.43 | 0.28 | 93 | 1011.0 |
| 20260508132017 | 13 | 271 | 1.6 | 4.8 | 0.00 | 0.56 | 0.28 | 92 | 1010.9 |
| 20260508131017 | 13 | 252 | 0.0 | 4.8 | 0.20 | 0.61 | 0.28 | 94 | 1011.1 |
| 20260508130016 | 12 | 311 | 0.0 | 4.8 | 0.23 | 0.61 | 0.28 | 94 | 1011.1 |
| 20260508125016 | 12 | 304 | 3.2 | 9.7 | 0.23 | 0.74 | 0.28 | 93 | 1011.2 |
| 20260508124016 | 12 | 7 | 1.6 | 8.0 | 0.23 | 1.45 | 0.28 | 95 | 1011.3 |
| 20260508123017 | 12 | 358 | 4.8 | 9.7 | 0.23 | 1.45 | 0.28 | 93 | 1011.2 |
| 20260508122017 | 12 | 345 | 3.2 | 6.4 | 0.23 | 1.45 | 0.28 | 91 | 1012.1 |
| 20260508121017 | 13 | 67 | 1.6 | 6.4 | 0.05 | 1.24 | 0.08 | 84 | 1011.9 |
| 20260508120017 | 13 | 335 | 1.6 | 8.0 | 0.03 | 1.22 | 0.05 | 85 | 1011.8 |
| 20260508115037 | 13 | 355 | 3.2 | 8.0 | 0.00 | 1.19 | 0.05 | 88 | 1012.0 |
| 20260508114017 | 13 | 45 | 4.8 | 9.7 | 0.00 | 1.19 | 0.05 | 88 | 1011.9 |
| 20260508113016 | 13 | 29 | 4.8 | 9.7 | 0.03 | 1.19 | 0.05 | 87 | 1012.1 |
| 20260508112017 | 13 | 32 | 3.2 | 8.0 | 0.05 | 1.19 | 0.05 | 88 | 1012.0 |
| 20260508111017 | 12 | 60 | 4.8 | 6.4 | 0.05 | 1.19 | 0.05 | 88 | 1012.0 |
| 20260508110016 | 12 | 349 | 3.2 | 6.4 | 0.05 | 1.19 | 0.05 | 88 | 1012.2 |
| 20260508105057 | 12 | 276 | 3.2 | 6.4 | 0.05 | 1.19 | 0.05 | 87 | 1012.3 |
| 20260508104017 | 12 | 349 | 1.6 | 8.0 | 0.05 | 1.19 | 0.05 | 84 | 1012.2 |
| 20260508103016 | 13 | 273 | 1.6 | 4.8 | 0.03 | 1.17 | 0.03 | 80 | 1012.4 |
| 20260508102016 | 13 | 295 | 1.6 | 4.8 | 0.00 | 1.17 | 0.00 | 78 | 1012.4 |
| 20260508101017 | 13 | 356 | 1.6 | 6.4 | 0.00 | 1.17 | 0.00 | 76 | 1012.3 |
| 20260508100017 | 13 | 50 | 1.6 | 6.4 | 0.00 | 1.17 | 0.00 | 75 | 1012.2 |
| 20260508095017 | 13 | 38 | 3.2 | 9.7 | 0.00 | 1.17 | 0.00 | 75 | 1012.1 |
| 20260508094016 | 13 | 58 | 1.6 | 8.0 | 0.00 | 1.17 | 0.00 | 75 | 1012.3 |
| 20260508093016 | 13 | 54 | 3.2 | 8.0 | 0.00 | 1.17 | 0.00 | 75 | 1012.2 |
| 20260508092017 | 13 | 353 | 1.6 | 4.8 | 0.00 | 1.17 | 0.00 | 77 | 1012.2 |
| 20260508091017 | 12 | 13 | 1.6 | 6.4 | 0.00 | 1.17 | 0.00 | 78 | 1012.3 |
| 20260508090017 | 12 | 18 | 1.6 | 6.4 | 0.00 | 1.17 | 0.00 | 80 | 1012.2 |
| 20260508085017 | 12 | 125 | 3.2 | 6.4 | 0.00 | 1.17 | 0.00 | 81 | 1012.1 |
| 20260508084016 | 12 | 137 | 0.0 | 3.2 | 0.00 | 1.17 | 0.00 | 81 | 1012.3 |
| 20260508083037 | 11 | 131 | 1.6 | 6.4 | 0.00 | 1.17 | 0.00 | 83 | 1012.2 |
| 20260508082017 | 11 | 44 | 4.8 | 8.0 | 0.00 | 1.17 | 0.00 | 84 | 1012.0 |
| 20260508081017 | 11 | 58 | 4.8 | 11.3 | 0.00 | 1.17 | 0.00 | 84 | 1011.8 |
| 20260508080017 | 10 | 53 | 4.8 | 8.0 | 0.00 | 1.17 | 0.00 | 85 | 1012.0 |
| 20260508075017 | 10 | 68 | 3.2 | 6.4 | 0.00 | 1.17 | 0.00 | 85 | 1012.1 |
| 20260508074017 | 10 | 43 | 1.6 | 6.4 | 0.00 | 1.17 | 0.00 | 86 | 1012.1 |
| 20260508073017 | 10 | 48 | 3.2 | 6.4 | 0.00 | 1.17 | 0.00 | 87 | 1012.1 |
| 20260508072017 | 9 | 48 | 3.2 | 6.4 | 0.00 | 1.17 | 0.00 | 88 | 1012.0 |
| 20260508071017 | 9 | 70 | 1.6 | 6.4 | 0.00 | 1.17 | 0.00 | 89 | 1012.0 |
| 20260508070017 | 8 | 45 | 4.8 | 9.7 | 0.00 | 1.17 | 0.00 | 90 | 1011.8 |
| 20260508065017 | 8 | 46 | 4.8 | 9.7 | 0.00 | 1.17 | 0.00 | 90 | 1011.6 |
| 20260508064017 | 8 | 47 | 6.4 | 12.9 | 0.00 | 1.17 | 0.00 | 90 | 1011.9 |
| 20260508063017 | 8 | 50 | 6.4 | 14.5 | 0.00 | 1.17 | 0.00 | 90 | 1011.8 |
| 20260508062017 | 8 | 44 | 6.4 | 12.9 | 0.00 | 1.17 | 0.00 | 90 | 1011.8 |
| 20260508061016 | 8 | 53 | 6.4 | 12.9 | 0.00 | 1.17 | 0.00 | 90 | 1011.6 |
| 20260508060017 | 8 | 50 | 6.4 | 11.3 | 0.00 | 1.17 | 0.00 | 90 | 1011.5 |
| 20260508055016 | 8 | 52 | 4.8 | 12.9 | 0.00 | 1.17 | 0.00 | 89 | 1011.6 |
| 20260508054017 | 8 | 50 | 6.4 | 11.3 | 0.00 | 1.17 | 0.00 | 89 | 1011.6 |
| 20260508053017 | 8 | 49 | 4.8 | 9.7 | 0.00 | 1.17 | 0.00 | 89 | 1011.7 |
| 20260508052017 | 8 | 50 | 4.8 | 9.7 | 0.00 | 1.17 | 0.00 | 89 | 1011.6 |
| 20260508051017 | 8 | 94 | 1.6 | 9.7 | 0.00 | 1.17 | 0.00 | 89 | 1011.3 |
| 20260508050017 | 8 | 56 | 3.2 | 8.0 | 0.00 | 1.17 | 0.00 | 89 | 1011.2 |
| 20260508045017 | 8 | 80 | 3.2 | 8.0 | 0.00 | 1.17 | 0.00 | 89 | 1011.1 |
| 20260508044017 | 8 | 67 | 3.2 | 8.0 | 0.00 | 1.17 | 0.00 | 89 | 1010.8 |
| 20260508043020 | 8 | 60 | 3.2 | 8.0 | 0.00 | 1.17 | 0.00 | 89 | 1010.8 |
| 20260508042017 | 8 | 80 | 4.8 | 6.4 | 0.00 | 1.17 | 0.00 | 89 | 1010.7 |
| 20260508041017 | 8 | 73 | 3.2 | 6.4 | 0.00 | 1.17 | 0.00 | 88 | 1010.6 |
| 20260508040017 | 8 | 69 | 4.8 | 9.7 | 0.00 | 1.17 | 0.00 | 88 | 1010.5 |